Temp
17 15 14 16 17 19 18 19 18 16 18 18 17 17 17 18 17 16 17 17 18 19 16 17 18 17 17 17 17 17 16 16 15 15 15 15 14 13 13 12 12 11 11 12
15 14 16 17 18 19 19 20 16 16 17 18 18 17 16 18 17 17 16 16 17 15 13 14 16 17 17 16 16 15 15 15 15 15 15 15 13 12 12 11 11 11 11 11
15 17 17 18 18 18 18 18 17 16 16 17 17 15 16 17 18 18 17 17 17 14 13 12 13 15 15 15 15 14 14 14 14 15 15 14 13 11 10 10 10 10 10 11
16 16 17 16 17 17 17 18 16 16 16 16 17 15 17 20 18 17 18 17 17 16 13 12 12 13 14 14 13 13 13 13 13 13 14 14 13 11 10 10 9 10 10 10
14 15 15 16 17 17 17 16 15 16 15 15 16 15 14 18 18 17 16 15 14 12 12 11 12 12 13 12 12 12 12 12 12 13 13 13 12 11 10 9 9 9 9 9
13 14 14 15 15 16 15 15 14 13 12 10 13 15 14 16 17 16 15 14 13 11 10 9 11 11 11 11 11 11 11 11 11 12 12 13 12 10 9 8 8 8 8 8
12 12 13 14 14 15 14 13 9 10 8 12 12 13 15 17 17 15 13 13 12 10 8 7 7 9 9 10 10 10 10 10 10 11 11 11 11 10 10 9 8 8 8 8
9 9 12 14 14 13 14 15 12 14 12 13 12 13 15 15 12 12 12 11 11 10 8 7 8 9 9 9 9 9 9 9 9 10 10 10 10 10 9 9 8 8 8 8
10 10 13 13 14 15 14 13 14 11 6 10 11 13 16 13 13 12 11 11 10 9 8 7 8 9 9 9 9 9 9 8 8 9 9 9 9 9 9 9 9 8 7 7
12 10 12 13 14 14 14 13 12 8 8 10 12 14 14 13 12 12 11 10 9 9 9 8 8 9 9 9 9 9 9 8 8 8 9 9 9 9 9 8 8 7 6 6
13 12 11 12 12 12 13 12 13 11 9 11 11 13 13 14 12 11 11 11 9 9 8 7 8 9 9 9 9 9 8 8 7 8 8 9 8 8 8 7 6 6 5 5
13 11 11 11 12 13 13 12 12 9 12 8 10 12 15 14 12 12 11 11 9 9 8 8 9 9 9 9 8 8 8 8 8 8 8 8 8 7 6 6 6 5 5 5
12 10 10 11 10 12 12 13 13 12 10 12 11 12 13 13 13 13 11 10 9 9 8 8 8 8 8 8 8 8 8 8 8 8 8 8 7 6 6 6 5 5 4 4
13 11 10 11 11 10 11 12 12 12 7 11 11 13 13 13 12 12 12 10 9 9 9 8 7 7 8 8 8 8 8 8 9 8 8 7 7 6 6 5 4 3 3 3
13 9 12 12 11 11 11 12 13 12 12 12 13 13 14 13 13 12 11 11 10 10 10 9 8 8 8 8 8 9 9 9 9 8 7 7 7 6 5 4 3 3 2 2
12 9 11 6 11 12 12 11 12 13 13 12 13 12 14 17 14 13 12 11 11 11 11 10 9 9 9 9 9 9 9 9 9 8 8 7 6 5 4 3 3 2 2 1
11 8 6 6 8 10 9 8 11 12 13 13 12 14 15 14 14 13 12 12 12 12 11 10 10 10 10 10 11 10 11 10 9 8 7 6 6 5 4 3 3 2 2 1
10 8 6 7 4 8 12 11 13 12 13 13 13 14 14 15 14 13 12 13 12 12 11 11 11 11 12 13 12 12 11 10 9 8 7 6 5 5 3 3 3 2 1 0
9 8 7 7 5 8 11 11 11 11 12 13 13 14 14 13 14 13 13 12 13 12 11 12 14 13 13 13 13 12 11 10 8 8 7 7 6 5 4 4 3 2 0 -1
10 10 8 7 5 7 10 11 11 12 11 12 12 13 13 11 12 14 14 12 11 12 13 13 14 14 14 14 13 12 10 9 9 9 9 8 7 5 5 4 3 2 1 -0
9 9 9 8 3 6 8 10 11 9 12 13 11 11 10 11 13 11 11 11 11 11 12 13 13 13 14 14 12 10 10 9 12 10 9 7 6 5 5 4 2 1 -0 -2
9 10 10 5 4 8 8 9 10 11 11 11 11 11 10 9 7 8 7 7 6 8 9 10 9 10 11 11 11 10 9 12 9 8 7 6 5 5 4 3 1 -1 -2 -3
9 8 8 9 9 9 6 9 8 8 9 10 10 9 7 6 8 7 7 8 7 8 8 9 10 10 11 9 9 9 11 9 7 6 6 5 4 4 3 1 -0 -2 -3 -3
8 4 6 8 7 9 8 7 8 9 9 8 8 8 7 8 6 7 6 5 5 6 8 8 8 8 7 7 6 6 5 5 5 5 4 4 4 2 1 -0 -1 -2 -3 -5
5 5 4 4 4 3 6 6 6 6 6 7 8 8 8 6 7 7 5 5 4 5 5 6 6 6 6 6 6 7 6 5 4 4 4 4 2 1 0 -1 -1 -2 -2 -2
5 4 6 7 6 8 9 5 4 5 5 5 6 8 2 2 2 -0 0 3 4 5 5 5 5 5 6 6 6 6 5 4 4 3 3 2 1 0 -2 -2 -4 -5 -4 -4
Height
783 795 802 798 797 795 800 801 812 820 813 815 820 820 815 812 813 815 814 812 810 809 813 813 815 819 823 827 830 833 837 841 843 844 846 847 849 852 852 853 853 854 853 853
791 798 790 787 791 794 797 801 819 821 816 815 818 821 816 809 807 807 809 810 809 812 815 815 815 818 822 825 829 832 835 839 841 842 843 844 847 850 851 852 853 854 853 852
790 784 783 788 793 799 802 807 813 819 818 818 821 826 814 801 800 799 801 801 804 810 814 815 815 817 820 824 829 832 835 838 840 840 842 844 846 849 851 852 853 854 854 854
785 782 784 792 795 796 808 799 811 817 823 832 821 838 814 796 798 798 798 800 801 804 810 812 813 816 819 824 828 831 834 837 839 840 841 842 843 847 850 852 853 854 854 853
792 787 790 794 793 793 803 804 812 816 827 832 830 839 820 800 801 799 800 801 803 807 807 810 814 817 821 824 827 830 833 836 838 839 841 841 843 846 849 851 853 854 853 853
796 791 792 793 795 796 804 811 822 830 840 864 834 831 824 808 796 797 801 804 804 809 810 811 814 818 821 825 827 829 832 835 837 839 839 841 842 845 847 850 852 853 853 853
802 803 797 794 802 803 806 820 869 870 881 847 833 833 811 796 791 796 802 805 806 808 812 814 816 819 822 824 827 829 832 835 836 837 839 840 842 845 847 849 850 852 853 852
819 831 801 796 801 806 810 811 834 834 846 835 835 829 804 794 799 800 802 804 807 809 812 816 817 819 821 823 826 829 832 834 836 837 838 840 842 844 846 848 849 851 851 851
809 812 800 798 798 799 810 817 813 834 873 851 835 815 797 802 802 801 804 806 807 810 813 814 817 819 821 823 827 829 832 834 835 837 838 840 842 844 845 847 849 850 851 852
788 811 803 802 799 800 803 807 831 852 867 852 828 812 806 804 802 802 804 806 807 808 810 813 814 818 821 823 826 829 831 833 836 837 838 840 842 844 846 848 849 850 851 852
779 794 810 803 803 805 807 811 810 821 835 829 831 815 793 791 795 797 798 800 804 807 808 810 812 816 819 822 825 827 830 833 835 837 838 840 842 844 846 847 849 850 851 851
773 789 803 800 798 797 799 804 805 831 820 840 829 815 784 786 790 792 795 796 801 802 806 808 811 814 817 820 823 825 828 831 834 836 837 839 841 843 845 846 847 847 848 848
771 794 803 805 814 801 801 799 799 805 817 813 823 810 789 787 790 790 793 795 797 801 804 806 810 813 814 817 820 823 826 828 831 833 835 837 839 841 842 843 844 845 846 847
766 780 788 792 793 795 804 796 798 801 841 810 810 796 791 790 791 790 791 793 796 798 800 804 807 810 811 814 817 820 823 826 828 830 832 834 836 838 840 842 843 844 845 847
770 793 774 778 779 784 786 786 789 793 793 799 794 791 783 785 782 783 785 789 792 793 795 798 802 805 807 811 814 818 820 822 825 827 829 831 834 836 838 839 841 843 844 845
769 790 783 811 786 782 782 784 782 782 785 788 787 785 776 768 773 778 779 782 784 787 788 792 796 798 801 804 808 812 815 817 820 822 824 827 830 832 834 836 837 840 840 841
773 791 809 819 800 792 798 792 783 778 775 776 780 768 766 770 768 773 777 775 775 778 781 786 789 791 795 798 802 805 808 812 815 818 821 823 826 828 829 831 833 835 837 839
775 787 803 808 823 811 766 766 761 766 766 767 762 760 758 756 758 762 765 767 770 772 775 779 782 787 791 794 798 802 805 808 810 813 816 819 822 824 827 828 830 833 835 837
773 784 798 802 821 788 767 766 767 768 759 755 756 751 750 755 756 758 757 760 761 763 766 770 774 779 785 790 795 799 801 803 806 806 809 812 814 817 820 822 825 828 831 834
770 770 782 798 817 807 768 755 757 757 765 742 742 740 748 757 762 750 753 755 758 760 762 766 771 776 781 786 789 791 794 797 797 798 802 806 810 813 815 818 822 825 827 829
766 772 774 785 822 793 764 759 760 782 754 739 740 741 750 751 745 749 751 753 755 758 760 764 767 771 773 778 782 787 789 789 789 794 799 802 805 808 812 815 818 819 822 825
759 757 763 801 811 781 759 764 763 751 746 744 742 742 745 748 752 752 754 755 756 758 761 763 766 769 773 777 780 782 784 784 787 791 794 797 801 804 808 811 814 816 819 821
759 755 760 759 758 748 753 750 750 751 751 747 744 746 749 753 753 753 753 755 756 758 761 763 766 770 773 775 778 779 777 781 784 787 790 793 797 800 802 805 808 811 813 814
751 758 760 754 753 743 744 747 746 748 750 750 749 751 751 751 754 754 754 757 758 759 761 763 765 768 771 774 776 778 780 781 784 786 789 790 792 793 796 799 802 803 805 806
763 759 764 764 759 756 744 741 743 748 748 751 753 752 752 754 755 757 758 759 760 762 763 764 766 769 771 772 774 775 777 779 781 784 785 786 787 788 789 791 793 794 796 797
758 765 753 745 742 735 732 736 740 745 748 751 752 754 757 757 759 759 761 762 763 763 764 766 767 768 769 769 771 772 775 777 779 780 781 781 782 784 786 787 789 791 791 795
Wind_Speed
3 4 6 9 7 4 7 5 6 1 2 4 5 4 9 7 5 7 8 8 6 6 11 24 25 24 22 16 14 13 13 12 14 15 16 12 11 7 5 4 5 5 6 5
4 4 7 8 7 4 3 4 4 3 1 2 2 8 9 7 8 9 10 9 8 6 6 13 21 20 17 16 14 13 13 13 14 15 16 16 13 9 8 8 7 7 7 6
6 4 7 6 5 7 3 5 6 6 4 1 1 6 7 7 8 5 7 7 8 10 10 7 16 18 17 16 15 14 13 13 14 15 16 18 13 12 11 9 8 7 7 7
2 4 8 6 5 6 5 4 8 9 4 3 2 5 5 3 5 7 7 8 8 7 6 6 13 19 21 18 16 14 12 12 14 13 13 14 14 14 8 9 8 7 6 6
5 3 7 5 6 6 4 10 8 5 5 3 2 0 7 2 4 6 6 5 7 7 6 10 13 19 19 18 16 13 12 11 14 13 13 12 17 13 14 11 8 6 6 6
1 1 3 1 4 6 7 11 9 6 4 1 7 7 5 4 6 4 4 6 6 7 6 10 18 23 19 15 14 13 12 12 14 14 15 13 16 18 16 13 9 6 5 6
4 4 3 2 9 5 7 6 3 3 2 5 3 3 6 4 1 6 8 7 6 7 7 7 12 17 16 15 14 13 13 13 14 15 15 15 16 15 14 13 10 7 5 5
5 1 3 2 4 7 8 6 5 8 5 4 3 7 6 2 6 6 6 7 5 6 7 7 11 15 15 15 15 14 13 14 14 15 17 16 16 15 13 11 10 7 5 4
5 2 1 3 2 7 5 3 3 6 2 3 4 5 4 2 2 4 6 6 6 6 7 8 11 13 14 16 15 14 15 14 14 16 17 16 15 13 13 11 8 7 5 4
4 5 1 1 2 1 4 7 3 3 4 3 4 3 5 7 8 7 6 7 7 6 7 7 11 14 14 15 14 14 14 15 15 16 15 15 14 12 11 9 8 7 5 4
6 4 4 4 5 7 3 3 4 4 4 5 3 5 5 8 9 10 8 8 8 8 7 7 12 15 16 15 16 16 17 17 16 15 15 13 13 11 10 9 8 6 5 4
4 5 4 4 0 1 2 5 5 4 4 2 2 5 3 4 8 8 8 8 8 7 8 7 14 17 18 18 18 19 18 18 16 15 14 13 12 12 10 9 8 7 7 5
6 2 6 3 5 2 4 4 4 3 3 5 5 5 1 3 3 4 8 8 8 8 8 7 11 16 20 20 20 20 20 19 18 16 15 15 14 13 12 11 10 9 7 5
4 4 6 8 6 7 6 10 7 7 3 4 5 3 5 7 8 7 7 8 8 8 9 7 7 15 20 22 23 23 22 21 20 19 18 17 16 14 13 11 10 9 7 5
3 4 3 2 5 5 6 13 18 16 12 7 7 10 8 9 11 9 9 8 9 9 10 10 9 12 20 23 24 25 24 24 23 22 20 19 15 14 14 13 11 9 7 6
2 1 3 2 3 1 4 14 17 20 14 12 7 7 6 2 4 6 10 11 11 10 10 9 9 15 19 25 29 29 28 27 25 24 23 19 18 18 17 15 13 11 9 9
4 5 3 4 3 3 8 8 10 9 12 13 18 20 11 8 9 9 9 12 12 12 12 12 13 18 22 28 30 30 30 26 27 25 22 21 21 21 21 17 15 13 12 11
8 5 3 3 3 5 4 1 10 16 10 17 13 6 13 15 12 8 9 14 12 11 11 10 15 21 26 27 28 27 25 26 26 25 24 24 24 23 20 19 17 15 14 13
4 4 3 5 3 5 4 5 7 8 13 17 18 19 16 7 2 6 6 7 13 12 13 19 28 27 27 26 27 26 26 26 27 29 28 27 27 26 23 22 20 17 16 16
7 3 3 3 5 8 5 2 4 5 8 10 15 18 11 7 8 9 6 6 8 12 18 22 26 25 25 26 27 29 28 27 31 32 31 28 28 26 25 22 20 18 19 18
6 4 9 5 3 7 7 4 1 5 6 2 3 6 7 8 6 5 4 3 5 8 11 19 23 29 31 30 28 27 27 29 33 30 28 27 26 25 22 20 20 20 20 19
9 6 6 3 2 8 6 4 8 4 3 1 3 2 5 4 7 6 7 6 7 9 7 9 17 20 20 17 19 23 27 30 27 25 25 26 24 22 21 21 20 21 21 21
4 5 6 8 6 5 8 6 7 1 2 1 2 1 5 7 4 7 6 6 4 6 6 6 8 12 14 15 18 22 27 24 23 21 23 23 21 21 21 22 23 23 24 26
4 2 2 3 5 6 8 6 2 4 2 2 3 1 5 6 7 5 5 4 4 5 5 4 7 9 9 11 16 21 18 14 18 20 20 19 21 22 22 23 24 27 28 29
1 1 5 5 4 4 7 9 7 7 6 5 1 1 3 7 4 3 2 1 1 2 2 1 2 5 7 7 9 13 19 16 17 19 19 21 22 23 24 26 28 30 31 31
4 5 4 5 7 5 4 1 8 10 8 8 6 2 2 2 4 2 2 1 3 5 4 3 2 4 6 7 8 9 13 17 20 21 23 24 24 24 25 25 27 25 25 28
Wind_Direction
199 115 173 181 190 147 133 140 119 55 334 132 219 258 255 232 216 211 225 242 244 197 148 141 136 134 135 142 156 165 167 167 166 159 152 158 147 127 101 94 89 95 100 102
79 188 208 182 197 134 105 123 94 58 126 125 198 266 254 237 221 199 203 218 227 119 132 136 144 153 161 157 162 167 172 173 172 171 168 170 154 127 117 109 103 98 101 101
146 187 202 177 169 142 161 163 156 144 176 126 28 283 247 256 245 201 210 190 199 165 165 161 154 157 156 160 170 176 178 178 169 176 160 148 139 128 123 119 107 90 75 67
142 296 158 143 173 138 165 153 119 124 105 219 127 277 291 217 207 202 204 199 191 156 174 171 161 162 163 164 170 177 179 178 169 166 172 168 161 146 147 136 114 93 81 73
215 160 128 127 168 128 174 120 117 105 91 82 262 330 271 161 224 212 201 144 121 108 143 170 164 161 158 159 172 176 178 173 168 169 168 157 151 144 138 134 131 113 89 79
101 268 51 101 51 113 129 81 49 47 74 300 212 173 262 208 210 154 142 136 119 95 89 117 146 155 150 159 168 170 168 163 161 156 157 166 154 147 146 147 143 131 107 88
31 2 333 74 85 35 98 84 36 9 351 227 354 193 249 243 185 153 153 156 137 114 123 124 133 148 158 168 169 167 166 153 154 161 157 153 150 152 154 155 156 147 124 102
140 291 202 146 151 166 170 162 158 196 194 216 353 223 251 178 127 106 125 160 150 137 147 152 162 169 176 177 174 169 162 153 155 155 150 151 151 154 154 157 157 152 145 120
132 18 342 96 84 154 221 178 147 104 31 70 215 278 300 130 154 157 159 155 176 170 162 173 183 187 185 179 173 170 163 157 156 154 152 151 154 156 154 153 155 152 139 124
149 115 219 30 76 66 146 158 68 349 128 247 266 264 234 211 211 204 198 202 196 176 173 180 180 183 181 175 170 171 172 164 160 157 156 153 154 154 154 155 157 154 147 144
131 114 168 109 204 173 151 188 191 133 154 170 161 254 217 222 195 196 204 196 185 184 186 173 177 181 176 173 174 174 174 170 166 165 160 158 157 160 164 164 157 156 159 164
198 123 148 179 353 170 222 197 155 137 223 225 148 272 328 153 179 177 195 186 184 181 177 180 180 172 172 178 179 179 177 177 176 172 171 171 172 174 172 170 173 176 180 185
181 132 113 143 354 355 217 220 200 124 99 204 147 250 193 150 171 189 173 180 180 174 175 176 169 175 179 182 183 184 186 185 185 185 186 184 185 186 186 187 188 190 191 192
109 156 152 178 194 150 191 205 201 181 143 168 214 212 238 232 220 214 197 185 178 176 184 182 175 190 190 191 190 192 193 197 197 197 197 197 197 196 197 197 198 196 195 206
112 168 134 32 137 139 179 188 198 209 205 188 190 211 225 213 218 207 194 180 180 186 189 187 185 192 195 196 198 200 202 203 204 204 205 207 203 203 204 203 201 201 204 211
113 217 122 357 355 102 218 210 206 215 218 236 258 252 225 248 192 189 195 178 190 196 196 187 188 191 194 195 200 203 207 208 208 210 213 209 206 206 207 206 204 205 208 211
176 144 105 234 359 43 289 205 198 211 214 212 227 234 231 257 239 206 207 199 191 193 192 189 197 196 195 199 202 205 208 209 210 214 214 211 210 209 210 208 207 211 214 216
177 118 89 141 42 253 265 209 207 211 215 221 238 210 212 223 227 211 199 196 195 195 186 191 193 200 205 205 206 210 209 210 211 214 215 213 212 213 209 210 214 216 216 217
165 131 124 146 191 301 271 222 180 169 246 228 234 241 231 209 145 260 199 195 199 189 188 195 203 203 202 202 207 209 210 211 212 217 215 214 214 211 211 214 215 216 215 217
211 143 126 145 151 213 247 226 144 118 287 223 209 231 218 138 215 239 191 186 202 198 193 196 203 204 194 203 208 208 209 209 218 222 221 216 216 216 218 222 220 222 222 223
171 175 196 161 210 287 248 191 206 105 241 341 209 205 158 192 221 174 129 77 147 155 182 200 191 191 199 205 206 208 213 220 236 232 225 219 218 220 225 227 225 224 222 219
182 165 181 128 116 257 164 76 175 237 342 1 22 45 166 135 126 122 117 124 134 137 141 170 190 200 204 213 211 215 223 242 237 230 222 219 218 219 223 226 225 223 220 217
241 195 170 178 205 201 193 185 210 190 189 345 87 359 134 132 153 156 145 129 104 113 122 174 208 223 225 231 234 232 240 238 231 221 217 215 215 219 222 221 220 216 217 217
231 102 203 91 235 199 204 218 166 166 149 45 81 143 153 146 170 146 131 144 146 145 156 173 206 227 241 241 237 241 254 247 229 221 214 212 214 217 219 222 224 222 218 214
201 304 170 272 291 346 276 235 160 150 125 125 130 125 129 124 148 158 165 180 120 111 110 145 241 270 274 258 263 257 251 242 228 224 223 222 222 221 223 228 230 229 234 231
146 246 190 227 195 190 228 298 165 161 170 173 158 191 8 74 156 78 99 114 78 82 88 67 27 327 329 305 292 277 253 239 233 230 229 228 229 230 232 233 234 236 242 242